Mills, WY

7:09 PM MDT on August 27, 2016 (GMT -0600)
Natrona County International

Weather History for KCPR - November, 2012

Change the Weather History Date:

Wednesday, November 14, 2012

  Actual Average Record
Temperature  
Mean Temperature 36 °F 34 °F  
Max Temperature 45 °F 46 °F 68 °F (1953)
Min Temperature 26 °F 22 °F -10 °F (1978)
Degree Days  
Heating Degree Days 29 31  
Month to date heating degree days 376 393  
Since 1 July heating degree days 1147 1292  
Cooling Degree Days 0 0  
Month to date cooling degree days 0 0  
Year to date cooling degree days 697 422  
Moisture  
Dew Point 25 °F    
Average Humidity 65    
Maximum Humidity 85    
Minimum Humidity 45    
Precipitation  
Precipitation 0.00 in 0.03 in 0.40 in (2006)
Month to date precipitation 0.33 0.41  
Year to date precipitation 7.33 11.68  
Snow  
Snow 0.00 in 0.30 in - ()
Month to date snowfall 4.1 4.6  
Since 1 July snowfall 9.3 13.8  
Since 1 September snowfall 9.3 13.8  
Snow Depth 0.00 in    
Sea Level Pressure  
Sea Level Pressure 30.18 in    
Wind  
Wind Speed 12 mph (WSW)    
Max Wind Speed 25 mph    
Max Gust Speed 31 mph    
Visibility 10 miles    
Events      
T = Trace of Precipitation, MM = Missing Value Source: NWS Daily Summary

Daily Weather History Graph

Daily Weather History Graph

Search for Another Location

Airport or City:

Trip Planner

Search our weather history database for the weather conditions in past years. The results will help you decide how hot, cold, wet, or windy it might be!

Date:

Astronomy

Nov. 14, 2012 Rise Set
Actual Time 6:57 AM MST 4:42 PM MST
Civil Twilight 6:26 AM MST 5:13 PM MST
Nautical Twilight 5:52 AM MST 5:47 PM MST
Astronomical Twilight 5:19 AM MST 6:21 PM MST
Moon 7:51 AM MST (11/14) 5:32 PM MST (11/14)
Length of Visible Light 10h 46m
Length of Day
9h 45m
New Moon, 1% of the Moon is Illuminated
Nov 14
New Moon
Nov 20
First Quarter
Nov 28
Full
Dec 6
Last Quarter
Dec 13
New

Hourly Weather History & Observations

Time (MST) Temp. Windchill Dew Point Humidity Pressure Visibility Wind Dir Wind Speed Gust Speed Precip Events Conditions
12:53 AM 30.9 °F 20.7 °F 23.0 °F 72% 30.19 in 10.0 mi SW 13.8 mph - N/A   Clear
1:53 AM 30.9 °F 21.2 °F 23.0 °F 72% 30.19 in 10.0 mi WSW 12.7 mph - N/A   Clear
2:53 AM 30.9 °F 21.2 °F 23.0 °F 72% 30.19 in 10.0 mi SW 12.7 mph - N/A   Clear
3:53 AM 30.0 °F 20.5 °F 21.9 °F 72% 30.18 in 10.0 mi WSW 11.5 mph - N/A   Clear
4:53 AM 32.0 °F 22.1 °F 23.0 °F 69% 30.19 in 10.0 mi SW 13.8 mph - N/A   Clear
5:53 AM 34.0 °F 24.6 °F 23.0 °F 64% 30.19 in 10.0 mi SW 13.8 mph - N/A   Clear
6:53 AM 34.0 °F 23.8 °F 21.9 °F 61% 30.19 in 10.0 mi SW 16.1 mph 23.0 mph N/A   Clear
7:53 AM 34.0 °F 23.4 °F 21.9 °F 61% 30.21 in 10.0 mi SW 17.3 mph - N/A   Mostly Cloudy
8:53 AM 35.1 °F 24.5 °F 21.9 °F 59% 30.20 in 10.0 mi SW 18.4 mph - N/A   Clear
9:53 AM 37.9 °F 28.5 °F 23.0 °F 55% 30.18 in 10.0 mi SW 17.3 mph - N/A   Clear
10:53 AM 39.9 °F 30.2 °F 23.0 °F 51% 30.16 in 10.0 mi SW 20.7 mph 25.3 mph N/A   Clear
11:53 AM 42.1 °F 32.3 °F 24.1 °F 49% 30.12 in 10.0 mi SW 24.2 mph - N/A   Mostly Cloudy
12:53 PM 44.1 °F 35.9 °F 25.0 °F 47% 30.10 in 10.0 mi WSW 19.6 mph 23.0 mph N/A   Scattered Clouds
1:53 PM 44.1 °F 36.8 °F 25.0 °F 47% 30.09 in 10.0 mi SW 16.1 mph 21.9 mph N/A   Mostly Cloudy
2:53 PM 44.1 °F 37.4 °F 26.1 °F 49% 30.09 in 10.0 mi SW 13.8 mph 24.2 mph N/A   Overcast
3:53 PM 43.0 °F 37.7 °F 27.0 °F 53% 30.11 in 10.0 mi WSW 9.2 mph - N/A   Partly Cloudy
4:53 PM 41.0 °F 35.2 °F 28.0 °F 60% 30.12 in 10.0 mi WSW 9.2 mph - N/A   Overcast
5:53 PM 39.9 °F 35.1 °F 28.9 °F 65% 30.14 in 10.0 mi WSW 6.9 mph - N/A   Overcast
6:53 PM 37.0 °F 33.3 °F 28.0 °F 70% 30.17 in 10.0 mi West 4.6 mph - N/A   Overcast
7:53 PM 37.0 °F - 28.9 °F 73% 30.19 in 10.0 mi Calm Calm - N/A   Overcast
8:53 PM 36.0 °F 32.1 °F 28.0 °F 73% 30.22 in 10.0 mi NW 4.6 mph - N/A   Overcast
9:53 PM 33.1 °F 27.7 °F 28.0 °F 82% 30.25 in 10.0 mi North 5.8 mph - N/A   Overcast
10:53 PM 30.9 °F 24.3 °F 26.1 °F 82% 30.26 in 10.0 mi North 6.9 mph - N/A   Overcast
11:53 PM 30.9 °F - 26.1 °F 82% 30.28 in 10.0 mi Calm Calm - N/A   Overcast